Location: LDNL
(36.4545°S, 141.6685°E)
Time: 23:21:01
(UTC+10:00)

Vanguard 3 - Pass Details

Date: 26 January 2022
Orbit: 507 x 3246 km, 33.4° (Epoch: 31 May)

Event Time Altitude Azimuth Distance (km) Brightness Sun altitude
Rises 02:47:24 0° 285° (WNW) 4,519 - -32.8°
Reaches altitude 10° 02:49:53 10° 286° (WNW) 3,829 - -32.6°
Exits shadow 02:55:56 46° 296° (WNW) 2,565 9.2 -32.3°
Maximum altitude 03:00:44 76° 10° (N) 2,399 9.2 -31.9°
Drops below altitude 10° 03:19:00 10° 91° (E) 6,063 11.8 -30.5°
Sets 03:24:05 0° 91° (E) 7,205 12.3 -30.0°
